Home   Weather   Volgograd   Past weeks

Flag for Russia Past Weather in Volgograd, Russia — Yesterday and Last 2 Weeks

41 °F

Passing clouds.

Feels Like: 36 °F
Forecast: 32 / 42 °F
Wind: 8 mph from East

Location: Volgograd Airport

Current Time: Oct 22, 2016 at 8:56:33 PM

Latest Report: Oct 22, 2016 at 8:00 PM

Visibility: N/A

Pressure: 30.60 "Hg

Humidity: 57%

Dew Point: 27 °F

Location of VolgogradLocation

Past Weather in Volgograd — Graph


Volgograd Temperature Yesterday

Maximum temperature yesterday: 45 °F (at 11:00 AM)
Minimum temperature yesterday: 28 °F (at 6:30 AM)
Average temperature yesterday: 39 °F

High & Low Weather Summary for the Past Weeks

High72 °F (Oct 8, 1:30 PM)100% (Oct 7, 10:00 PM)30.63 "Hg (Oct 7, 10:00 PM)
Low27 °F (Oct 13, 6:00 AM)40% (Oct 13, 1:00 PM)29.98 "Hg (Oct 8, 11:30 PM)
Average43 °F73%30.30 "Hg
* Reported Oct 7 7:00 PM — Oct 22 7:30 PM, Volgograd, Weather by CustomWeather, © 2016

Note: Actual official high and low records may vary slightly from our data, if they occured in-between our weather recording intervals... More about our weather records


Volgograd Weather History for the Previous 24 Hours

Scroll right to see more
Time TempWeatherWind HumidityBarometerVisibility
7:30 PM
Sat, Oct 22
39 °FPassing clouds.6 mph61%30.60 "HgN/A
7:00 PM39 °FPassing clouds.8 mph56%30.60 "HgN/A
6:30 PM39 °FPassing clouds.10 mph56%30.60 "HgN/A
6:00 PM41 °FPassing clouds.13 mph57%30.60 "HgN/A
5:30 PM41 °FPassing clouds.13 mph53%30.60 "HgN/A
5:00 PM41 °FPassing clouds.15 mph53%30.60 "HgN/A
4:30 PM41 °FPassing clouds.15 mph53%30.60 "HgN/A
4:00 PM41 °FPassing clouds.17 mph53%30.60 "HgN/A
3:30 PM43 °FPartly sunny.15 mph49%30.60 "HgN/A
3:00 PM43 °FPartly sunny.17 mph49%30.60 "HgN/A
2:30 PM43 °FPartly sunny.17 mph49%30.60 "HgN/A
2:00 PM43 °FPartly sunny.17 mph49%30.57 "HgN/A
1:30 PM43 °FPartly sunny.17 mph49%30.60 "HgN/A
1:00 PM43 °FPartly sunny.15 mph49%30.60 "HgN/A
12:30 PM41 °FPartly sunny.13 mph53%30.60 "HgN/A
12:00 PM41 °FPartly sunny.15 mph57%30.60 "HgN/A
11:30 AM41 °FPartly sunny.17 mph49%30.63 "HgN/A
11:00 AM41 °FPartly sunny.15 mph53%30.63 "HgN/A
10:30 AM41 °FPartly sunny.15 mph53%30.63 "HgN/A
10:00 AM39 °FPartly sunny.15 mph56%30.63 "HgN/A
9:30 AM39 °FScattered clouds.15 mph56%30.63 "HgN/A
9:00 AM37 °FScattered clouds.17 mph65%30.63 "HgN/A
8:30 AM37 °FPartly sunny.15 mph65%30.63 "HgN/A
8:00 AM36 °FPartly sunny.15 mph70%30.63 "HgN/A
7:30 AM36 °FPartly sunny.15 mph70%30.63 "HgN/A
7:00 AM36 °FPartly sunny.13 mph70%30.63 "HgN/A
6:30 AM36 °FPartly sunny.13 mph70%30.60 "HgN/A
6:00 AM36 °FPartly sunny.13 mph70%30.60 "HgN/A
5:30 AM36 °FPassing clouds.10 mph70%30.60 "HgN/A
5:00 AM37 °FPassing clouds.10 mph65%30.60 "HgN/A
4:00 AM37 °FPassing clouds.10 mph65%30.60 "HgN/A
3:30 AM37 °FPassing clouds.10 mph65%30.60 "HgN/A
3:00 AM37 °FPassing clouds.13 mph65%30.60 "HgN/A
2:30 AM39 °FPassing clouds.10 mph61%30.60 "HgN/A
2:00 AM39 °FPassing clouds.10 mph61%30.60 "HgN/A
1:00 AM39 °FPassing clouds.8 mph65%30.60 "HgN/A
12:30 AM41 °FPassing clouds.13 mph66%30.60 "HgN/A
12:00 AM41 °FPassing clouds.10 mph76%30.60 "HgN/A
11:30 PM
Fri, Oct 21
41 °FPassing clouds.6 mph76%30.60 "HgN/A
11:00 PM41 °FPassing clouds.6 mph76%30.60 "HgN/A
10:30 PM41 °FPassing clouds.6 mph76%30.60 "HgN/A
10:00 PM41 °FPassing clouds.6 mph76%30.60 "HgN/A
9:00 PM41 °FPassing clouds.6 mph76%30.60 "HgN/A
8:30 PM41 °FPassing clouds.3 mph76%30.57 "HgN/A
8:00 PM41 °FPassing clouds.6 mph76%30.57 "HgN/A
Weather by CustomWeather, © 2016

See weather overviewHow to use our weather pages